Regional Weather Roundup
Issued by NWS Upton, NY

Current Version | Previous Version | Graphics & Text | Print | Product List | Glossary Off
Versions: 1 2 3 4 5 6 7 8 9 10 11 12 13 14 15 16 17 18 19 20 21 22 23 24 25 26 27 28 29 30 31 32 33 34 35 36 37 38 39 40 41 42 43 44 45 46 47 48 49 50

000
ASUS41 KOKX 280109
RWROKX

REGIONAL WEATHER ROUNDUP
NATIONAL WEATHER SERVICE NEW YORK NY
900 PM EDT TUE JUN 27 2017

NOTE: "FAIR" INDICATES FEW OR NO CLOUDS BELOW 12,000 FEET WITH NO
SIGNIFICANT WEATHER AND/OR OBSTRUCTIONS TO VISIBILITY.

NYZ071-072-176-178-NJZ106-104-280200-
NEW YORK CITY METRO AREA

CITY           SKY/WX    TMP DP  RH WIND       PRES   REMARKS
Central Park   PTCLDY    72  46  39 VRB5      29.98S
Bronx Bot Gard   N/A     70  45  40 W2        29.98S
LaGuardia APRT MOCLDY    74  49  41 NW12G17   29.95R
Kennedy INTL   MOCLDY    69  63  81 S6        29.97R
Breezy Point     N/A     68 N/A N/A NW7         N/A
Newark/Liberty MOCLDY    72  47  40 W8        29.96R
Teterboro      MOCLDY    71  47  42 VRB7      29.95R
$$

NYZ177-179-078>081-280200-
LONG ISLAND NEW YORK

CITY           SKY/WX    TMP DP  RH WIND       PRES   REMARKS
Jones Beach      N/A     66 N/A N/A NW3         N/A
Matinecock PT  NOT AVBL
Farmingdale    NOT AVBL
MacArthur/ISP  MOCLDY    68  55  63 W5        29.96R
Shirley        PTCLDY    65  58  78 CALM      29.97R
Mt Sinai Harb    N/A    N/A N/A N/A SW2         N/A
Westhampton    PTCLDY    65  54  67 W3        29.97S
East Hampton   NOT AVBL
Montauk          N/A     68  62  81 SW8       29.96R
$$

NYZ052-065-067-280200-
HUDSON VALLEY

CITY           SKY/WX    TMP DP  RH WIND       PRES   REMARKS
White Plains   PTCLDY    67  51  56 W5        29.95S
Larchmont Harb   N/A     72 N/A N/A W8          N/A
Croton O-T Hud   N/A     70 N/A N/A NW10        N/A
Newburgh       PTCLDY    64  52  63 NW6       29.98S
Montgomery     PTCLDY    64  50  60 CALM      29.97S
Poughkeepsie   PTCLDY    62  54  74 CALM      29.96S
Albany         PTCLDY    59  52  77 W5        29.96S
$$

NJZ001-105-106-008-010-013-015-019>022-104-280200-
NEW JERSEY

CITY           SKY/WX    TMP DP  RH WIND       PRES   REMARKS
Newark/Liberty MOCLDY    72  47  40 W8        29.96R
Teterboro      MOCLDY    71  47  42 VRB7      29.95R
Caldwell       CLOUDY    70  49  47 CALM      29.97S
Somerville     MOCLDY    63  59  87 CALM      29.96R
Linden         MOCLDY    70  48  45 CALM      29.96S
Perth Amboy      N/A     72 N/A N/A NW7         N/A
Sussex         CLOUDY    61  53  75 CALM      29.98F
Andover          N/A     61  53  75 CALM      29.99R
Trenton        MOCLDY    70  54  56 CALM      29.97R
Millville      CLOUDY    65  60  84 W3        29.98R
Atlantic City  PTCLDY    74  56  53 W6        29.98R
Wrightstown    PTCLDY    70  52  52 W6        29.94R
Toms River     MOCLDY    69  54  58 SW3       29.97R
Belmar         MOCLDY    69  62  78 NW5       29.98R
$$

PAZ047>061-062-071-280200-
EASTERN PENNSYLVANIA

CITY           SKY/WX    TMP DP  RH WIND       PRES   REMARKS
Philadelphia   PTCLDY    74  49  41 NW8       29.99R
Allentown      CLOUDY    69  48  47 W8        29.99R
Scranton       MOCLDY    63  48  58 W5        30.00R
$$

CTZ002-004>006-009-010-012-RIZ004-006-007-MAZ004-011-015-280200-
SOUTHERN NEW ENGLAND
 IN CT

CITY           SKY/WX    TMP DP  RH WIND       PRES   REMARKS
Bradley INTL   MOCLDY    60  53  77 NW5       29.96R
Hartford       PTCLDY    67  50  54 NW3       29.95R
Danbury        CLEAR     64  50  60 NW5       29.98R
Wtrbury/Oxford   N/A     63  46  55 NW5       29.98R
Bridgeport     MOCLDY    70  56  61 SW3       29.95R
Meriden        CLOUDY    64  53  67 NW7       29.96R
New Haven      CLOUDY    69  53  56 VRB6      29.95R
Chester        FAIR      68  55  64 NW3       29.95R
Groton         PTCLDY    68  59  73 W7        29.93R
Wilimantic     CLOUDY    60  58  92 NE8       29.96R

 IN RI

CITY           SKY/WX    TMP DP  RH WIND       PRES   REMARKS
Providence     MOCLDY    69  53  56 W14G23    29.95R
Block Island   CLEAR     65  62  90 SW12      29.95R
Westerly       CLEAR     68  61  78 VRB3      29.95R
 IN MA

CITY           SKY/WX    TMP DP  RH WIND       PRES   REMARKS
Boston         CLOUDY    65  54  67 SW28G39   29.95R THUNDER
Worcester      CLOUDY    54  51  90 SW7       29.96R
Westfield      PTCLDY    56  54  93 CALM      29.95R
Provincetown   CLOUDY    67  60  78 S9        29.95R
Nantucket      MOCLDY    63  62  97 SE5       29.96R
$$

ANZ330-335-338-340-345-350-353-355-280200-
COASTAL MARINE OBSERVATIONS


STATION/POSITION TIME  SKY/WX   TEMP    WIND        PRES    VSBY  WAVE
                                AIR SEA DIR/SP/G                  HT/PER
                 (UTC)          (F)     (DEG/KT/KT) (MB)    (MI)  (FT/S)
NY HARB ENTRANCE 0050            69 69  230/  8/ 10 1014.3          1/ 7
20 S FIRE ISLAND 0050            70 71  200/ 10/ 10 1013.7          2/ 6
GREAT SOUTH BAY  0030            71 76  290/  8/ 14   N/A
23 SSW MONTAUK P 0050            67 66              1014.3          2/ 4
15 E BARNEGAT LI 0030               67                N/A           2/ 3
HUDSON CANYON    0050            70 69  230/  8/  8 1014.4          2/ 4
KINGS POINT      0024            72 67  330/ 12/ 17 1014.2
EXECUTION ROCKS  0045            71     270/ 12/ 16   N/A
CENTRAL LI SOUND 0045            69     250/ 14/ 16   N/A           2
EASTERN LI SOUND NOT AVBL
ROBBINS REEF     0024                   290/  8/ 12 1014.9
$$


>>>>>>>>>>>>>>>>>>>>>>>>>>>> KEY <<<<<<<<<<<<<<<<<<<<<<<<<<<
>                                                          <
>     SKY/WX - Sky Condition/Present Weather               <
>     TMP    - Temperature in Fahrenheit                   <
>     DP     - Dew Point in Fahrenheit                     <
>     RH     - Relative Humidity in Percent                <
>     WIND   - Direction (from) and Speed in MPH           <
>     PRES   - Mean Sea Level Pressure (inches of Hg)      <
>     WCI    - Wind Chill Index                            <
>     VSB    - VISIBILITY IN MILES                         <
>     HX     - HEAT INDEX                                  <
>     TC     - TEMPERATURE IN CELSIUS                      <
>     VRB    - VARIABLE WIND DIRECTION                     <
>                                                          <
>>>>>>>>>>>>>>>>>>>>>>>>>>>> KEY <<<<<<<<<<<<<<<<<<<<<<<<<<<



USA.gov is the U.S. government's official web portal to all federal, state and local government web resources and services.